This is the latest recevied weather packets stored in our database for station/object WMKD. If no packets are shown the sender has not sent any weather packets the latest 10 day(s).
| Time | Temp. | Humidity | Pressure | Rain* | Wind** | Luminosity | Snow |
|---|---|---|---|---|---|---|---|
| 1777806589 | 30° C | 74% | 1006 hPa | - | - | - | - |
| 1777803584 | 30° C | 74% | 1006 hPa | - | - | - | - |
| 1777802987 | 30° C | 74% | 1006 hPa | - | - | - | - |
| 1777799387 | 30.56° C | 70% | 1005 hPa | - | - | - | - |
| 1777795790 | 31.67° C | 66% | 1005 hPa | - | - | - | - |
| 1777792187 | 31.67° C | 66% | 1007 hPa | - | - | - | - |
| 1777788587 | 31.67° C | 70% | 1008 hPa | - | - | - | - |
| 1777784987 | 27.78° C | 88% | 1009 hPa | - | - | - | - |
| 1777781390 | 32.78° C | 59% | 1010 hPa | - | - | - | - |
| 1777777786 | 31.67° C | 66% | 1010 hPa | - | - | - | - |
| 1777774191 | 30° C | 74% | 1010 hPa | - | - | - | - |
| 1777770586 | 27.78° C | 83% | 1009 hPa | - | - | - | - |
| 1777766989 | 25° C | 94% | 1008 hPa | - | - | - | - |
| 1777763386 | 23.89° C | 10% | - | - | - | - | - |
| 1777759786 | 23.89° C | 10% | - | - | - | - | - |
| 1777756186 | 25° C | 94% | 1007 hPa | - | - | - | - |
| 1777752586 | 25° C | 94% | 1007 hPa | - | - | - | - |
| 1777748993 | 25° C | 94% | 1008 hPa | - | - | - | - |
| 1777745386 | 25° C | 94% | 1008 hPa | - | - | - | - |
| 1777741788 | 25.56° C | 88% | 1009 hPa | - | - | - | - |
| 1777740585 | 25.56° C | 94% | 1009 hPa | - | - | - | - |
| 1777740000 | 25° C | 95% | 1010.9 hPa | - | - | - | - |
| 1777738185 | 25.56° C | 94% | 1009 hPa | - | - | - | - |
| 1777734585 | 26.67° C | 88% | 1009 hPa | - | - | - | - |
| 1777730989 | 26.67° C | 88% | 1009 hPa | - | - | - | - |
* Rain since midnight (hover to see other rain measurements)
** Current wind speed in m/s (hover to see current wind gust speed)